Weather in Innokentyevskiy

Russia / Khabarovsk Krai     48°36′15″N   140°10′05″E
temp.,
°C
wind,
m/s
gust,
m/s
humid.,
%
clouds,
%
prec.,
mm/h
press.,
hPa
HPBL,
m
27 february, sat
sat2701:00−14nw477776 0.0 1027275
04:00−16nw348240 0.0 1028133
07:00−16nw33810 0.0 1030109
10:00−13wnw11710 0.0 1030164
13:00−9sse22740 0.0 1029261
16:00−8s358317 0.0 1026226
19:00−9sw46849 0.0 1026156
22:00−8ssw598639 0.0 1024276
28 february, sun
sun2801:00−7ssw61385100 0.0 1021388
04:00−6ssw71189100 0.3 1016346
07:00−7sw5782100 0.0 1013183
10:00−4sw4776100 0.0 1012217
13:00−1ssw4581100 0.0 1012251
16:00+1sw6108284 0.0 1012426
19:00−2wsw576356 0.0 101483
22:00−7nnw347378 0.0 101759
1 march, mon
mon101:00−10nw4476100 0.0 1019103
04:00−12wnw4770100 0.0 1021226
07:00−15w347247 0.0 1022117
10:00−13wnw567023 0.0 1023286
13:00−10nw46570 0.0 10231181
16:00−9nne125526 0.0 1024987
19:00−12nw587273 0.0 1027376
22:00−17nw567652 0.0 1029195
2 march, tue
tue201:00−18wnw34792 0.0 1029101
04:00−19wnw34831 0.0 102995
07:00−20wnw44850 0.0 1030102
10:00−16nw347633 0.0 1029195
13:00−12n2266100 0.0 1027488
16:00−11nne5570100 0.1 1026878
19:00−13nne697296 0.0 1027692
22:00−16nnw478159 0.0 1028321
3 march, wed
wed301:00−18nnw57820 0.0 1027357
04:00−20nnw46870 0.0 1027262
07:00−21nw45850 0.0 1027157
10:00−17wnw22710 0.0 1026205
13:00−12s33690 0.0 1024397
16:00−11ssw68770 0.0 1022325
19:00−12ssw610790 0.0 1022334
22:00−10sw7148144 0.0 1021540